• Join FlightAware (Why Join?)
  • Login
  • US Flag 
01:30PM EDT


 

Airport Tracker/Info


-or-


 

Live Flight TrackerFlight Track Log ✈ ELJ384 ✈ 13-Nov-2013 ✈ KDBQ - KEYW

Flight Track Log - Related Links

Times and Time Zones

All times are in EST time to prevent confusion due to time zone crossing. See the ELJ384 flight status page for this flight to view local times or setup timezone preferences in your user account.

Time Position Orientation Groundspeed Altitude Reporting Facility
EST Latitude Longitude Course Direction KTS MPH feet Rate Location/Type
11:49AM 41.7521 -90.2977 143° Southeast  Level Estimated
11:49AM 42.3069 -90.6436 146° Southeast 257 296 6,600  Level Chicago Center
11:50AM 41.6437 -90.2299 155° Southeast  Level Estimated
11:50AM 42.2297 -90.6442 180° South 277 319 10,200  Level Chicago Center
11:51AM 41.5351 -90.1623 143° Southeast  Level Estimated
11:51AM 42.1439 -90.6353 176° South 310 357 14,200  Level Chicago Center
11:52AM 41.4266 -90.0949 157° South  Level Estimated
11:52AM 42.0564 -90.5722 152° Southeast 355 409 17,800  Level Chicago Center
11:53AM 41.3329 -89.9956 141° Southeast  Level FlightAware Approximate
11:53AM 41.9636 -90.5036 151° Southeast 383 441 20,200  Level Chicago Center
11:54AM 41.8647 -90.4328 152° Southeast 402 463 23,700 3,180 Climbing Chicago Center
11:55AM 41.7553 -90.3550 152° Southeast 418 481 26,800 3,000 Climbing Chicago Center
11:56AM 41.6261 -90.2614 152° Southeast 440 506 30,000 3,120 Climbing Chicago Center
11:57AM 41.5150 -90.1806 151° Southeast 451 519 33,300 2,400 Climbing Chicago Center
11:58AM 41.4064 -90.1031 152° Southeast 445 512 35,000 780 Climbing Chicago Center
11:59AM 41.2906 -90.0197 152° Southeast 467 537 35,000 780 Level Chicago Center
12:00PM 41.1758 -89.9378 152° Southeast 467 537 36,700 2,220 Climbing Chicago Center
12:01PM 41.0656 -89.8592 152° Southeast 455 524 39,600 2,040 Climbing Chicago Center
12:02PM 40.9581 -89.7833 152° Southeast 440 506 41,000 660 Climbing Chicago Center
12:03PM 40.8261 -89.6908 152° Southeast 447 514 41,000  Level Chicago Center
12:04PM 40.7153 -89.6144 152° Southeast 451 519 41,000  Level Chicago Center
12:05PM 40.5969 -89.5319 152° Southeast 447 514 41,000  Level Chicago Center
12:06PM 40.4858 -89.4550 152° Southeast 450 518 41,000  Level Chicago Center
12:07PM 40.3753 -89.3794 152° Southeast 447 514 41,000  Level Chicago Center
12:08PM 40.2639 -89.3028 152° Southeast 450 518 41,000  Level Chicago Center
12:09PM 40.1514 -89.2258 152° Southeast 454 522 41,000  Level Chicago Center
12:10PM 40.0381 -89.1489 153° Southeast 456 525 41,000  Level Kansas City Center
12:11PM 39.9250 -89.0717 152° Southeast 459 528 41,000  Level Kansas City Center
12:12PM 39.8106 -88.9950 153° Southeast 460 529 41,000  Level Kansas City Center
12:13PM 39.6964 -88.9186 153° Southeast 461 531 41,000  Level Kansas City Center
12:15PM 39.5819 -88.8417 153° Southeast 462 532 41,000  Level Kansas City Center
12:16PM 39.4675 -88.7656 153° Southeast 463 533 41,000  Level Kansas City Center
12:17PM 39.3439 -88.6822 152° Southeast 460 529 41,000  Level Kansas City Center
12:18PM 39.2228 -88.6011 153° Southeast 458 527 41,000  Level Kansas City Center
12:19PM 39.1078 -88.5253 153° Southeast 460 529 41,000  Level Kansas City Center
12:20PM 38.9944 -88.4508 153° Southeast 459 528 41,000  Level Kansas City Center
12:21PM 38.8814 -88.3756 153° Southeast 458 527 41,000  Level Kansas City Center
12:22PM 38.7431 -88.2850 153° Southeast 461 531 41,000  Level Kansas City Center
12:23PM 38.6281 -88.2094 153° Southeast 463 533 41,000  Level Kansas City Center
12:24PM 38.5114 -88.1356 154° Southeast 466 536 41,000  Level Kansas City Center
12:25PM 38.3953 -88.0611 153° Southeast 467 537 41,000  Level Kansas City Center
12:26PM 38.2783 -87.9864 153° Southeast 468 539 41,000  Level Kansas City Center
12:27PM 38.1622 -87.9128 154° Southeast 468 539 41,000  Level Kansas City Center
12:28PM 38.0258 -87.8258 153° Southeast 463 533 41,000  Level Indianapolis Center
12:29PM 37.9094 -87.7522 153° Southeast 467 537 41,000  Level Indianapolis Center
12:30PM 37.7931 -87.6806 154° Southeast 465 535 41,000  Level Indianapolis Center
12:31PM 37.6725 -87.6078 154° Southeast 462 532 41,000  Level Indianapolis Center
12:32PM 37.5553 -87.5356 154° Southeast 463 533 41,000  Level Indianapolis Center
12:33PM 37.4372 -87.4642 154° Southeast 465 535 41,000  Level Indianapolis Center
12:34PM 37.2997 -87.3797 154° Southeast 467 537 41,000  Level Indianapolis Center
12:35PM 37.1814 -87.3081 154° Southeast 468 539 41,000  Level Indianapolis Center
12:36PM 37.1022 -87.2597 154° Southeast 467 537 41,000  Level Memphis Center
12:37PM 36.9842 -87.1878 154° Southeast 467 537 41,000  Level Memphis Center
12:38PM 36.8664 -87.1169 154° Southeast 466 536 41,000  Level Memphis Center
12:39PM 36.7483 -87.0469 155° Southeast 465 535 41,000  Level Memphis Center
12:40PM 36.6306 -86.9764 154° Southeast 465 535 41,000  Level Memphis Center
12:41PM 36.5119 -86.9056 154° Southeast 466 536 41,000  Level Memphis Center
12:42PM 36.3883 -86.8325 155° Southeast 465 535 41,000  Level Memphis Center
12:43PM 36.2683 -86.7636 155° Southeast 468 539 41,000  Level Memphis Center
12:44PM 36.1389 -86.6881 155° Southeast 486 559 41,000  Level Memphis Center
12:45PM 35.9933 -86.6158 158° South 477 549 41,000  Level Memphis Center
12:46PM 35.8689 -86.5547 158° South 477 549 41,000  Level Memphis Center
12:47PM 35.7456 -86.4931 158° South 475 547 41,000  Level Memphis Center
12:48PM 35.6222 -86.4319 158° South 473 544 41,000  Level Memphis Center
12:49PM 35.4992 -86.3708 158° South 473 544 41,000  Level Memphis Center
12:50PM 35.3750 -86.3097 158° South 474 545 41,000  Level Memphis Center
12:51PM 35.2519 -86.2486 158° South 474 545 41,000  Level Memphis Center
12:52PM 35.1178 -86.1836 158° South 474 545 41,000  Level Memphis Center
12:54PM 34.9964 -86.1247 158° South 472 543 41,000  Level Memphis Center
12:55PM 34.8736 -86.0661 159° South 472 543 41,000  Level Memphis Center
12:56PM 34.7392 -86.0006 158° South 477 549 41,000  Level Memphis Center
12:57PM 34.6133 -85.9406 159° South 480 552 41,000  Level Memphis Center
12:58PM 34.4886 -85.8803 158° South 482 555 41,000  Level Memphis Center
12:59PM 34.3642 -85.8219 159° South 481 554 41,000  Level Memphis Center
01:00PM 34.2103 -85.7519 159° South 484 557 41,000  Level Atlanta Center
01:01PM 34.0878 -85.6917 158° South 484 557 41,000  Level Atlanta Center
01:02PM 33.9656 -85.6367 160° South 479 551 41,000  Level Atlanta Center
01:03PM 33.8453 -85.5794 158° South 468 539 41,000  Level Atlanta Center
01:04PM 33.7228 -85.5200 158° South 468 539 41,000  Level Atlanta Center
01:05PM 33.5981 -85.4653 160° South 468 539 41,000  Level Atlanta Center
01:06PM 33.4756 -85.4086 159° South 468 539 41,000  Level Atlanta Center
01:07PM 33.3511 -85.3544 160° South 473 544 41,000  Level Atlanta Center
01:08PM 33.2181 -85.2903 158° South 468 539 41,000  Level Atlanta Center
01:09PM 33.0914 -85.2339 160° South 468 539 41,000  Level Atlanta Center
01:10PM 32.9708 -85.1853 161° South 468 539 41,000  Level Atlanta Center
01:12PM 32.7356 -85.0983 163° South 462 532 41,000  Level Atlanta Center
01:13PM 32.6086 -85.0475 161° South 462 532 41,000  Level Atlanta Center
01:14PM 32.4861 -84.9919 159° South 468 539 41,000  Level Atlanta Center
01:16PM 32.2053 -84.8739 160° South 468 539 41,000  Level Jacksonville Center
01:17PM 32.0872 -84.8225 160° South 462 532 41,000  Level Jacksonville Center
01:18PM 31.9647 -84.7733 161° South 462 532 41,000  Level Jacksonville Center
01:19PM 31.8422 -84.7219 160° South 462 532 41,000  Level Jacksonville Center
01:20PM 31.7197 -84.6706 160° South 462 532 41,000  Level Jacksonville Center
01:21PM 31.5972 -84.6194 160° South 462 532 41,000  Level Jacksonville Center
01:22PM 31.4769 -84.5686 160° South 462 532 41,000  Level Jacksonville Center
01:23PM 31.3544 -84.5200 161° South 462 532 41,000  Level Jacksonville Center
01:24PM 31.2361 -84.4694 160° South 454 522 41,000  Level Jacksonville Center
01:25PM 31.1156 -84.4214 161° South 460 529 41,000  Level Jacksonville Center
01:26PM 30.9969 -84.3708 160° South 460 529 41,000  Level Jacksonville Center
01:27PM 30.8789 -84.3086 156° South 460 529 41,000  Level Jacksonville Center
01:28PM 30.7625 -84.2464 155° Southeast 465 535 41,000  Level Jacksonville Center
01:29PM 30.6461 -84.1867 156° South 465 535 41,000  Level Jacksonville Center
01:30PM 30.5319 -84.1275 156° South 453 521 41,000  Level Jacksonville Center
01:31PM 30.4178 -84.0681 156° South 447 514 41,000  Level Jacksonville Center
01:32PM 30.3033 -84.0089 156° South 452 520 41,000  Level Jacksonville Center
01:33PM 30.1869 -83.9500 156° South 457 526 41,000  Level Jacksonville Center
01:34PM 30.0706 -83.8886 155° Southeast 457 526 41,000  Level Jacksonville Center
01:35PM 29.9519 -83.8322 158° South 457 526 41,000  Level Jacksonville Center
01:36PM 29.8356 -83.7714 156° South 457 526 41,000  Level Jacksonville Center
01:37PM 29.7211 -83.7106 155° Southeast 457 526 41,000  Level Jacksonville Center
01:38PM 29.6169 -83.6594 157° South 457 526 41,000  Level Jacksonville Center
01:39PM 29.5025 -83.6036 157° South 457 526 41,000  Level Jacksonville Center
01:40PM 29.3858 -83.5433 156° South 457 526 41,000  Level Jacksonville Center
01:41PM 29.2714 -83.4831 155° Southeast 457 526 41,000  Level Jacksonville Center
01:42PM 29.1547 -83.4253 157° South 457 526 41,000  Level Jacksonville Center
01:43PM 29.0381 -83.3700 157° South 457 526 41,000  Level Jacksonville Center
01:44PM 28.9194 -83.3100 156° South 457 526 41,000  Level Jacksonville Center
01:45PM 28.8025 -83.2503 156° South 457 526 41,000  Level Jacksonville Center
01:46PM 28.6900 -83.1956 157° South 457 526 41,000  Level Jacksonville Center
01:48PM 28.4372 -83.0714 157° South 451 519 41,000  Level Miami Center
01:49PM 28.3231 -83.0156 157° South 451 519 41,000  Level Miami Center
01:50PM 28.2086 -82.9575 156° South 451 519 41,000  Level Miami Center
01:51PM 28.0983 -82.9044 157° South 446 513 41,000  Level Miami Center
01:52PM 27.9878 -82.8517 157° South 460 529 41,000  Level Miami Center
01:53PM 27.8797 -82.7942 155° Southeast 460 529 41,000  Level Miami Center
01:54PM 27.7650 -82.7392 157° South 450 518 41,000  Level Miami Center
01:55PM 27.6406 -82.6694 154° Southeast 449 517 41,000  Level Miami Center
01:56PM 27.5303 -82.6100 154° Southeast 449 517 41,000  Level Miami Center
01:57PM 27.4181 -82.5483 154° Southeast 456 525 41,000  Level Miami Center
01:58PM 27.3200 -82.4944 154° Southeast 449 517 41,000  Level Miami Center
01:59PM 27.2056 -82.4306 154° Southeast 458 527 41,000  Level Miami Center
02:00PM 27.0911 -82.3689 154° Southeast 453 521 41,000  Level Miami Center
02:01PM 26.9808 -82.3103 155° Southeast 453 521 41,000 -600 Level Miami Center
02:02PM 26.8683 -82.2467 153° Southeast 453 521 39,800 -1,560 Descending Miami Center
02:03PM 26.7536 -82.1881 155° Southeast 453 521 37,900 -1,920 Descending Miami Center
02:04PM 26.6431 -82.1297 155° Southeast 453 521 36,000 -1,860 Descending Miami Center
02:05PM 26.5303 -82.0689 154° Southeast 453 521 34,200 -1,800 Descending Miami Center
02:06PM 26.4158 -82.0058 154° Southeast 458 527 32,500 -1,800 Descending Miami Center
02:07PM 26.2969 -81.9381 153° Southeast 458 527 30,700 -2,040 Descending Miami Center
02:08PM 26.1697 -81.8725 155° Southeast 458 527 28,500 -2,220 Descending Miami Center
02:09PM 26.0447 -81.8050 154° Southeast 472 543 26,300 -2,160 Descending Miami Center
02:10PM 25.9236 -81.7422 155° Southeast 479 551 24,200 -1,440 Descending Miami Center
02:11PM 25.8089 -81.6797 154° Southeast 479 551 23,500 -1,500 Descending Miami Center
02:12PM 25.6917 -81.6197 155° Southeast 474 545 21,300 -2,160 Descending Miami Center
02:13PM 25.5789 -81.5578 154° Southeast 463 533 19,200 -2,100 Descending Miami Center
02:14PM 25.4736 -81.5217 163° South 445 512 17,200 -2,100 Descending Miami Center
02:15PM 25.3578 -81.5469 191° South 396 456 15,100 -1,980 Descending Miami Center
02:16PM 25.2525 -81.5797 196° South 401 461 13,300 -1,800 Descending Miami Center
02:17PM 25.1492 -81.6078 194° South 394 453 11,500 -1,740 Descending Miami Center
02:18PM 25.0647 -81.6411 200° South 380 437 9,900 -1,740 Descending Miami Center
02:19PM 24.9753 -81.6950 209° Southwest 369 425 8,100 -1,800 Descending Miami Center
02:20PM 24.9006 -81.7425 210° Southwest 348 400 6,400 -1,920 Descending Miami Center
02:21PM 24.8364 -81.7856 211° Southwest 309 356 4,300 -1,860 Descending Miami Center
02:22PM 24.7703 -81.8286 211° Southwest 288 331 2,700 -1,440 Descending Miami Center
02:23PM 24.7000 -81.8692 208° Southwest 283 326 1,500 -600 Descending Miami Center
02:24PM 24.6328 -81.8803 189° South 270 311 1,600  Climbing Miami Center
02:25PM 24.5722 -81.8825 182° South 237 273 1,500 -240 Descending Miami Center
02:26PM 24.5506 -81.8381 118° Southeast 182 209 1,200 -300 Descending Miami Center
02:28PM 24.5561 -81.7596 122° Southeast  Level Estimated
02:35PM 24.5561 -81.7596 122° Southeast  Level Estimated
02:36PM 24.5561 -81.7596 122° Southeast  Level Estimated